Other Public Products
Issued by NWS Charleston, SC

Home | Current Version | Previous Version | Text Only | Print | Product List | Glossary On
Versions: 1 2 3 4 5 6 7 8 9 10 11 12 13 14 15 16 17 18 19 20 21 22 23 24 25 26 27 28 29 30 31 32 33 34 35 36 37 38 39 40 41 42 43 44 45 46 47 48 49 50
928
FPUS82 KCHS 250627
OPUCHS

TEST...KCHS/KSAV Gateway Observations...TEST
National Weather Service Charleston SC
200 AM EDT SAT MAR 25 2017

NOTE: "fair" indicates few or no clouds below 12,000 feet with no
significant weather and/or obstructions to visibility.

SCZ050-WAZ558-NCZ071-TXZ119-213-PAZ071-DCZ001-FLZ074-172-MI076-
NYZ176-178-MAZ016-IL014-TNZ027-NJZ106-GAZ044-MD014-250700-

...Gateway Observations for Charleston International...

CITY           SKY/WX    TMP DP  RH WIND       PRES   REMARKS
Chas Airport   CLOUDY    58  54  86 NE3       30.35F
6HR MIN TEMP:  55; 6HR MAX TEMP:  65;

Seattle        PTCLDY    46  41  82 S13       30.00R
6HR MIN TEMP:  46; 6HR MAX TEMP:  52; 6HR PCP:  0.01;

Charlotte      MOCLDY    59  47  64 S9        30.34F
6HR MIN TEMP:  57; 6HR MAX TEMP:  64;

Dallas DFW     CLEAR     66  42  41 W17       29.86R
6HR MIN TEMP:  66; 6HR MAX TEMP:  80;

Dallas Love    CLEAR     66  42  41 NW15G24   29.87R
6HR MIN TEMP:  66; 6HR MAX TEMP:  77;

Philladelphia  MOCLDY    48  37  65 S7        30.14F
6HR MIN TEMP:  45; 6HR MAX TEMP:  54;

Wash National  CLOUDY    56  47  71 S12       30.18F
6HR MIN TEMP:  55; 6HR MAX TEMP:  58;

Baltimore      MOCLDY    61  47  59 SW8       30.14F
6HR MIN TEMP:  52; 6HR MAX TEMP:  61;

Miami          PTCLDY    72  62  71 E12       30.20F
6HR MIN TEMP:  71; 6HR MAX TEMP:  74; 6HR PCP:  0.04;

Detroit        CLOUDY    46  39  76 N10       30.10R
6HR MIN TEMP:  46; 6HR MAX TEMP:  72;

Newark         MOCLDY    50  33  52 SW9       30.09F
6HR MIN TEMP:  48; 6HR MAX TEMP:  55;

Laguardia      CLOUDY    55  33  43 SW10      30.08F
6HR MIN TEMP:  52; 6HR MAX TEMP:  57;

J F K          CLOUDY    45  40  82 S13       30.11F
6HR MIN TEMP:  43; 6HR MAX TEMP:  47;

Boston Logan   CLOUDY    46  33  60 W5        30.07R
6HR MIN TEMP:  43; 6HR MAX TEMP:  47;

Ft. Lauderdale PTCLDY    73  61  65 E16       30.20F
6HR MIN TEMP:  73; 6HR MAX TEMP:  74;

Chicago O`Hare CLOUDY    42  36  79 NE15      30.06R
6HR MIN TEMP:  42; 6HR MAX TEMP:  46; 6HR PCP: TRACE;

Chicago Midway CLOUDY    41  38  89 N16G23    30.07R
6HR MIN TEMP:  41; 6HR MAX TEMP:  48; 6HR PCP:  0.48;

Houston Bush   MOCLDY    68  58  70 S5        29.95F
6HR MIN TEMP:  65; 6HR MAX TEMP:  76; 6HR PCP:  1.26;

Houston Hobby  MOCLDY    70  60  70 SW16G30   29.97S THUNDER
6HR MIN TEMP:  68; 6HR MAX TEMP:  75; 6HR PCP:  0.89;

Nashville      MOCLDY    62  51  67 SE7       30.12F
6HR MIN TEMP:  62; 6HR MAX TEMP:  71;

Atlanta        CLOUDY    63  49  60 S16G23    30.26F
6HR MIN TEMP:  63; 6HR MAX TEMP:  71;


$$

GAZ044-118-TXZ119-213-NCZ071-DCZ001-MDZ014-506-PAZ021-071-NJZ106-
NYZ176-178-MAZ106-OHZ011-021-055-MIZ076-KYZ091-ILZ014-INZ047-
MNZ060-ONZ431-250700-

...Gateway Observations for Savannah International...

CITY           SKY/WX    TMP DP  RH WIND       PRES   REMARKS
Savannah Arpt  CLOUDY    57  54  89 CALM      30.34F
6HR MIN TEMP:  57; 6HR MAX TEMP:  66;

Atlanta        CLOUDY    63  49  60 S16G23    30.26F
6HR MIN TEMP:  63; 6HR MAX TEMP:  71;

Charlotte      MOCLDY    59  47  64 S9        30.34F
6HR MIN TEMP:  57; 6HR MAX TEMP:  64;

Dallas DFW     CLEAR     66  42  41 W17       29.86R
6HR MIN TEMP:  66; 6HR MAX TEMP:  80;

Houston Bush   MOCLDY    68  58  70 S5        29.95F
6HR MIN TEMP:  65; 6HR MAX TEMP:  76; 6HR PCP:  1.26;

Wash National  CLOUDY    56  47  71 S12       30.18F
6HR MIN TEMP:  55; 6HR MAX TEMP:  58;

Wash Dulles    MOCLDY    59  45  59 S13       30.16F
6HR MIN TEMP:  58; 6HR MAX TEMP:  62;

Baltimore      MOCLDY    61  47  59 SW8       30.14F
6HR MIN TEMP:  52; 6HR MAX TEMP:  61;

Philadelphia   MOCLDY    48  37  65 S7        30.14F
6HR MIN TEMP:  45; 6HR MAX TEMP:  54;

Newark         MOCLDY    50  33  52 SW9       30.09F
6HR MIN TEMP:  48; 6HR MAX TEMP:  55;

Laguardia      CLOUDY    55  33  43 SW10      30.08F
6HR MIN TEMP:  52; 6HR MAX TEMP:  57;

J F K          CLOUDY    45  40  82 S13       30.11F
6HR MIN TEMP:  43; 6HR MAX TEMP:  47;

Boston         CLOUDY    46  33  60 W5        30.07R
6HR MIN TEMP:  43; 6HR MAX TEMP:  47;

Pittsburg      CLOUDY    65  52  62 SW8       30.12R
6HR MIN TEMP:  65; 6HR MAX TEMP:  70;

Akron          MOCLDY    64  51  62 SW8       30.10S
6HR MIN TEMP:  61; 6HR MAX TEMP:  67;

Cleveland      MOCLDY    63  51  65 SW5       30.09S
6HR MIN TEMP:  63; 6HR MAX TEMP:  71;

Cincinnati     CLOUDY    60  52  74 S7        30.13F
6HR MIN TEMP:  60; 6HR MAX TEMP:  70;

Columbus       PTCLDY    61  52  74 S8        30.11F
Detroit        CLOUDY    46  39  76 N10       30.10R
6HR MIN TEMP:  46; 6HR MAX TEMP:  72;

Chicago O`Hare CLOUDY    42  36  79 NE15      30.06R
6HR MIN TEMP:  42; 6HR MAX TEMP:  46; 6HR PCP: TRACE;

Minneapolis    CLOUDY    39  31  72 NE9       30.19R WCI  33
6HR MIN TEMP:  39; 6HR MAX TEMP:  42;

Indianapolis   CLOUDY    63  51  65 S9        30.05F
6HR MIN TEMP:  63; 6HR MAX TEMP:  69;

Toronto Canada LGT RAIN  39  37  93 N10       30.14R WCI  32

$$




USA.gov is the U.S. government's official web portal to all federal, state and local government web resources and services.